<?xml version="1.0" encoding="UTF-8" standalone="no" ?>
<gpx xmlns="http://www.topografix.com/GPX/1/1" xmlns:xsi="http://www.w3.org/2001/XMLSchema-instance" xsi:schemaLocation="http://www.topografix.com/GPX/1/1 http://www.topografix.com/GPX/1/1/gpx.xsd" version="1.1" creator="VisuGPX - https://www.visugpx.com">
  <metadata>
    <name>CheixenRetz_PierreTremblanteMartiniere_11-20km</name>
    <desc><![CDATA[gnerando idor: 7901511_12815416]]></desc>
  </metadata>
  <trk>
    <name><![CDATA[CheixEnRetz_PierreTremblante_11km-7901511]]></name>
    <extensions>
      <line xmlns="http://www.topografix.com/GPX/gpx_style/0/2">
        <color>0000FF</color>
        <width>4</width>
      </line>
    </extensions>
    <trkseg>
      <trkpt lat="47.18119" lon="-1.81592">
        <ele>11</ele>
        <time>2023-11-01T12:55:06Z</time>
      </trkpt>
      <trkpt lat="47.18046" lon="-1.81635">
        <ele>5</ele>
        <time>2023-11-01T12:56:51Z</time>
      </trkpt>
      <trkpt lat="47.18067" lon="-1.81832">
        <ele>2</ele>
        <time>2023-11-01T12:59:52Z</time>
      </trkpt>
      <trkpt lat="47.18064" lon="-1.82235">
        <ele>1.5</ele>
        <time>2023-11-01T13:05:57Z</time>
      </trkpt>
      <trkpt lat="47.18169" lon="-1.82265">
        <ele>2</ele>
        <time>2023-11-01T13:08:20Z</time>
      </trkpt>
      <trkpt lat="47.18239" lon="-1.82205">
        <ele>3</ele>
        <time>2023-11-01T13:10:08Z</time>
      </trkpt>
      <trkpt lat="47.18326" lon="-1.82257">
        <ele>3</ele>
        <time>2023-11-01T13:12:14Z</time>
      </trkpt>
      <trkpt lat="47.18326" lon="-1.8233">
        <ele>4</ele>
        <time>2023-11-01T13:13:20Z</time>
      </trkpt>
      <trkpt lat="47.18262" lon="-1.8239">
        <ele>3</ele>
        <time>2023-11-01T13:15:01Z</time>
      </trkpt>
      <trkpt lat="47.18309" lon="-1.82476">
        <ele>4</ele>
        <time>2023-11-01T13:16:41Z</time>
      </trkpt>
      <trkpt lat="47.18259" lon="-1.826">
        <ele>3</ele>
        <time>2023-11-01T13:18:52Z</time>
      </trkpt>
      <trkpt lat="47.18338" lon="-1.82888">
        <ele>5</ele>
        <time>2023-11-01T13:23:34Z</time>
      </trkpt>
      <trkpt lat="47.18268" lon="-1.82982">
        <ele>3</ele>
        <time>2023-11-01T13:25:40Z</time>
      </trkpt>
      <trkpt lat="47.18154" lon="-1.83004">
        <ele>3</ele>
        <time>2023-11-01T13:28:13Z</time>
      </trkpt>
      <trkpt lat="47.18143" lon="-1.83145">
        <ele>2</ele>
        <time>2023-11-01T13:30:22Z</time>
      </trkpt>
      <trkpt lat="47.18221" lon="-1.83351">
        <ele>3</ele>
        <time>2023-11-01T13:33:56Z</time>
      </trkpt>
      <trkpt lat="47.18318" lon="-1.8342">
        <ele>5</ele>
        <time>2023-11-01T13:36:20Z</time>
      </trkpt>
      <trkpt lat="47.18431" lon="-1.83407">
        <ele>5</ele>
        <time>2023-11-01T13:38:51Z</time>
      </trkpt>
      <trkpt lat="47.18329" lon="-1.83587">
        <ele>3</ele>
        <time>2023-11-01T13:42:24Z</time>
      </trkpt>
      <trkpt lat="47.1837" lon="-1.83776">
        <ele>2</ele>
        <time>2023-11-01T13:45:24Z</time>
      </trkpt>
      <trkpt lat="47.18484" lon="-1.83905">
        <ele>4</ele>
        <time>2023-11-01T13:48:35Z</time>
      </trkpt>
      <trkpt lat="47.18583" lon="-1.83832">
        <ele>6</ele>
        <time>2023-11-01T13:51:03Z</time>
      </trkpt>
      <trkpt lat="47.18639" lon="-1.83647">
        <ele>9</ele>
        <time>2023-11-01T13:54:07Z</time>
      </trkpt>
      <trkpt lat="47.19117" lon="-1.8351">
        <ele>14</ele>
        <time>2023-11-01T14:04:57Z</time>
      </trkpt>
      <trkpt lat="47.19289" lon="-1.83394">
        <ele>20</ele>
        <time>2023-11-01T14:09:09Z</time>
      </trkpt>
      <trkpt lat="47.19225" lon="-1.83025">
        <ele>17</ele>
        <time>2023-11-01T14:14:55Z</time>
      </trkpt>
      <trkpt lat="47.19301" lon="-1.82682">
        <ele>15</ele>
        <time>2023-11-01T14:20:22Z</time>
      </trkpt>
      <trkpt lat="47.19362" lon="-1.82695">
        <ele>16</ele>
        <time>2023-11-01T14:21:44Z</time>
      </trkpt>
      <trkpt lat="47.19333" lon="-1.82373">
        <ele>17</ele>
        <time>2023-11-01T14:26:39Z</time>
      </trkpt>
      <trkpt lat="47.19382" lon="-1.82356">
        <ele>17</ele>
        <time>2023-11-01T14:27:46Z</time>
      </trkpt>
      <trkpt lat="47.19499" lon="-1.81871">
        <ele>14</ele>
        <time>2023-11-01T14:35:32Z</time>
      </trkpt>
      <trkpt lat="47.19406" lon="-1.81497">
        <ele>10</ele>
        <time>2023-11-01T14:41:34Z</time>
      </trkpt>
      <trkpt lat="47.19411" lon="-1.81124">
        <ele>8</ele>
        <time>2023-11-01T14:47:12Z</time>
      </trkpt>
      <trkpt lat="47.19341" lon="-1.80751">
        <ele>14</ele>
        <time>2023-11-01T14:53:03Z</time>
      </trkpt>
      <trkpt lat="47.1935" lon="-1.80596">
        <ele>12</ele>
        <time>2023-11-01T14:55:24Z</time>
      </trkpt>
      <trkpt lat="47.19283" lon="-1.80369">
        <ele>14</ele>
        <time>2023-11-01T14:59:08Z</time>
      </trkpt>
      <trkpt lat="47.18703" lon="-1.79725">
        <ele>22</ele>
        <time>2023-11-01T15:15:18Z</time>
      </trkpt>
      <trkpt lat="47.18726" lon="-1.79579">
        <ele>20</ele>
        <time>2023-11-01T15:17:34Z</time>
      </trkpt>
      <trkpt lat="47.18641" lon="-1.79609">
        <ele>22</ele>
        <time>2023-11-01T15:19:30Z</time>
      </trkpt>
      <trkpt lat="47.18641" lon="-1.79699">
        <ele>22</ele>
        <time>2023-11-01T15:20:52Z</time>
      </trkpt>
      <trkpt lat="47.1844" lon="-1.79588">
        <ele>23</ele>
        <time>2023-11-01T15:25:39Z</time>
      </trkpt>
      <trkpt lat="47.18172" lon="-1.79356">
        <ele>23</ele>
        <time>2023-11-01T15:32:33Z</time>
      </trkpt>
      <trkpt lat="47.1814" lon="-1.79304">
        <ele>20</ele>
        <time>2023-11-01T15:33:37Z</time>
      </trkpt>
      <trkpt lat="47.17854" lon="-1.79429">
        <ele>11</ele>
        <time>2023-11-01T15:40:15Z</time>
      </trkpt>
      <trkpt lat="47.17781" lon="-1.79536">
        <ele>5</ele>
        <time>2023-11-01T15:42:33Z</time>
      </trkpt>
      <trkpt lat="47.17691" lon="-1.79781">
        <ele>5</ele>
        <time>2023-11-01T15:46:45Z</time>
      </trkpt>
      <trkpt lat="47.1781" lon="-1.79931">
        <ele>5</ele>
        <time>2023-11-01T15:50:14Z</time>
      </trkpt>
      <trkpt lat="47.17793" lon="-1.80021">
        <ele>3</ele>
        <time>2023-11-01T15:51:39Z</time>
      </trkpt>
      <trkpt lat="47.17912" lon="-1.79987">
        <ele>9</ele>
        <time>2023-11-01T15:54:21Z</time>
      </trkpt>
      <trkpt lat="47.17927" lon="-1.80257">
        <ele>14</ele>
        <time>2023-11-01T15:58:27Z</time>
      </trkpt>
      <trkpt lat="47.17877" lon="-1.80339">
        <ele>14</ele>
        <time>2023-11-01T16:00:07Z</time>
      </trkpt>
      <trkpt lat="47.17886" lon="-1.80459">
        <ele>14</ele>
        <time>2023-11-01T16:01:56Z</time>
      </trkpt>
      <trkpt lat="47.18041" lon="-1.80502">
        <ele>11</ele>
        <time>2023-11-01T16:05:27Z</time>
      </trkpt>
      <trkpt lat="47.18172" lon="-1.80416">
        <ele>11</ele>
        <time>2023-11-01T16:08:38Z</time>
      </trkpt>
      <trkpt lat="47.18207" lon="-1.80274">
        <ele>15</ele>
        <time>2023-11-01T16:10:55Z</time>
      </trkpt>
      <trkpt lat="47.18268" lon="-1.80309">
        <ele>14</ele>
        <time>2023-11-01T16:12:22Z</time>
      </trkpt>
      <trkpt lat="47.18326" lon="-1.80566">
        <ele>14</ele>
        <time>2023-11-01T16:16:28Z</time>
      </trkpt>
      <trkpt lat="47.18309" lon="-1.80939">
        <ele>15</ele>
        <time>2023-11-01T16:22:07Z</time>
      </trkpt>
      <trkpt lat="47.18221" lon="-1.80974">
        <ele>14</ele>
        <time>2023-11-01T16:24:09Z</time>
      </trkpt>
      <trkpt lat="47.18178" lon="-1.81235">
        <ele>15</ele>
        <time>2023-11-01T16:28:12Z</time>
      </trkpt>
      <trkpt lat="47.18114" lon="-1.81579">
        <ele>11</ele>
        <time>2023-11-01T16:33:36Z</time>
      </trkpt>
    </trkseg>
  </trk>
</gpx>